Regional Weather Roundup
Issued by NWS

Home | Current Version | Previous Version | Graphics & Text | Print | Product List | Glossary On
Versions: 1 2 3 4 5 6 7 8 9 10 11 12 13 14 15 16 17 18 19 20 21 22 23 24 25 26 27 28 29 30 31 32 33 34 35 36 37 38 39 40 41 42 43 44 45 46 47 48 49 50
000
ASUS43 KIND 010809
RWRIN

WEATHER ROUNDUP FOR INDIANA
NATIONAL WEATHER SERVICE INDIANAPOLIS IN
400 AM EDT SAT AUG 01 2015

NOTE: "FAIR" INDICATES FEW OR NO CLOUDS BELOW 12,000 FEET WITH NO
SIGNIFICANT WEATHER AND/OR OBSTRUCTIONS TO VISIBILITY.

* - STATION DOES NOT REPORT WEATHER SUCH AS PRECIPITATION OR FOG.

+ - STATION NOT QUALITY CONTROLLED BY THE NATIONAL WEATHER SERVICE.
    USE DATA WITH CAUTION...ESPECIALLY DEWPOINT AND RELATIVE
    HUMIDITY OBSERVATIONS.

INZ001>003-010>013-019-020-010900-
NORTHWEST INDIANA

CITY           SKY/WX    TMP DP  RH WIND       PRES   REMARKS
GARY /AIRPORT/ CLEAR     63  57  80 W5        29.98F
KNOX *+        CLEAR     59  54  82 SW5       29.97F
LA PORTE +     CLEAR     62  58  86 W6        29.98F
MICHIGAN CITY+ CLEAR     70  55  60 CALM      29.98S
MONTICELLO +   CLEAR     61  58  91 CALM      29.98F
RENSSELAER +   CLEAR     63  59  88 W6        29.99F
VALPARAISO     CLEAR     65  53  65 W6        29.99F

$$

LMZ046-743>745-010900-
SOUTHERN LAKE MICHIGAN

STATION/POSITION TIME  TEMP    WIND        PRES    WAVE
                       AIR SEA DIR/SP/G            HT
                 (UTC) (F)     (DEG/KT/KT) (MB)    (FT)
BURNS HARBOR     0700   75     300/ 12/ 15 1015.6S
MICHIGAN CITY    0700   74     280/ 14/ 15   N/A
5NW MICH CITY    0800   74 74  320/ 12/ 16   N/A     2

$$

INZ004-005-014>016-021>024-010900-
NORTH CENTRAL INDIANA

CITY           SKY/WX    TMP DP  RH WIND       PRES   REMARKS
GOSHEN         MOCLDY    61  55  81 SW5       29.96F
LOGANSPORT +   CLEAR     57  54  88 W5        29.99S
PERU/GRISSOM   CLEAR     59  56  87 W5        29.98F
ROCHESTER +    CLEAR     64  57  77 W3        29.98F
SOUTH BEND     CLEAR     62  57  83 W6        29.98S
WARSAW +       CLEAR     61  55  82 W3        29.97S

$$

INZ006>009-017-018-025>027-010900-
NORTHEAST INDIANA

CITY           SKY/WX    TMP DP  RH WIND       PRES   REMARKS
ANGOLA *+      CLEAR     55  54  94 CALM      29.96S
AUBURN +       CLEAR     63  54  72 W3        29.97S
FORT WAYNE     PTCLDY    60  55  83 W6        29.97F
HUNTINGTON +   CLEAR     61  56  84 W6        29.97F

$$

INZ028-029-035-036-043>045-051>053-010900-
WEST CENTRAL INDIANA

CITY           SKY/WX    TMP DP  RH WIND       PRES   REMARKS
CRAWFORDSVL +  CLEAR     60  58  92 NW3         N/A
GREENCASTLE +  CLEAR     68  54  60 CALM      30.01S
LAFAYETTE      CLEAR     61  59  93 CALM      29.99S
TERRE HAUTE    CLEAR     66  60  81 W5        30.01F

$$

INZ030>032-037>040-046>048-054>057-064-065-010900-
CENTRAL INDIANA

CITY           SKY/WX    TMP DP  RH WIND       PRES   REMARKS
FRANKFORT +    CLEAR    N/A N/A N/A CALM      30.01F
GREENWOOD *+   CLEAR     61  57  88 CALM      30.00F
INDIANAPOLIS   PTCLDY    68  59  73 NW5       29.98F
-EAGLE CREEK   CLEAR     68  61  78 W5        29.99F
KOKOMO *+      CLEAR     61  54  77 CALM      29.99F
MARION +       CLEAR     58  56  92 CALM      29.99F
MT COMFORT *+  MOCLDY    63 N/A N/A W3        30.00F
SHELBYVILLE    CLEAR     63  59  87 CALM      29.98F
ZIONSVILLE +   CLEAR     60  57  89 CALM      30.00F

$$

INZ033-034-041-042-049-050-058-059-010900-
EAST CENTRAL INDIANA

CITY           SKY/WX    TMP DP  RH WIND       PRES   REMARKS
MUNCIE         CLEAR     61  58  90 CALM      29.99S

$$

INZ060-061-067>069-081>083-085>088-010900-
SOUTHWEST INDIANA

CITY           SKY/WX    TMP DP  RH WIND       PRES   REMARKS
EVANSVILLE     CLEAR     71  68  90 W3        30.01F
HUNTINGBURG *+ CLEAR     70  64  83 CALM      30.00F
WASHINGTON +   MOCLDY    69  65  88 CALM      30.00S

$$

INZ062-063-066-070>080-084-089>092-010900-
SOUTH CENTRAL AND SOUTHEAST INDIANA

CITY           SKY/WX    TMP DP  RH WIND       PRES   REMARKS
BLOOMINGTON    CLEAR     62  60  93 CALM      30.01F
MADISON *+     CLEAR     64  61  88 CALM      30.02F
NORTH VERNON + CLEAR     64  64 100 CALM      30.00F
SEYMOUR +      CLEAR     66  59  77 CALM      29.99F

$$




USA.gov is the U.S. government's official web portal to all federal, state and local government web resources and services.